Terminal Aerodrome Forecast
Issued by NWS Blacksburg, VA

Current Version | Previous Version | Graphics & Text | Print | Product List | Glossary On
Versions: 1 2 3 4 5 6 7 8 9 10 11 12 13 14 15 16 17 18 19 20 21 22 23 24 25 26
000
FTUS41 KRNK 281137
TAFBLF
TAF
KBLF 281137Z 2812/2912 VRB05KT P6SM SKC
     FM281500 VRB03KT P6SM BKN035
     FM282000 19004KT P6SM -SHRA BKN050
     FM282300 18002KT P6SM SCT040=

USA.gov is the U.S. government's official web portal to all federal, state and local government web resources and services.